Time,TemperatureF,DewpointF,PressureIn,WindDirection,WindDirectionDegrees,WindSpeedMPH,WindSpeedGustMPH,Humidity,HourlyPrecipIn,Conditions,Clouds,dailyrainin,SoftwareType,DateUTC
2013-05-19 00:13:00,69.5,63.0,29.88,SE,140,5.0,6.0,80,0.00,,,0.01,weatherlink.com 1.10,2013-05-19 05:13:00,
2013-05-19 00:28:00,69.2,63.0,29.88,SE,138,3.0,9.0,81,0.00,,,0.01,weatherlink.com 1.10,2013-05-19 05:28:00,
2013-05-19 00:43:00,69.1,63.0,29.87,SSE,155,3.0,8.0,82,0.00,,,0.01,weatherlink.com 1.10,2013-05-19 05:43:00,
2013-05-19 00:58:00,69.0,63.0,29.86,SSE,149,8.0,10.0,82,0.00,,,0.01,weatherlink.com 1.10,2013-05-19 05:58:00,
2013-05-19 01:13:00,68.6,63.0,29.87,SSE,163,5.0,11.0,83,0.00,,,0.01,weatherlink.com 1.10,2013-05-19 06:13:00,
2013-05-19 01:28:00,68.5,64.0,29.86,SSE,158,4.0,8.0,84,0.00,,,0.01,weatherlink.com 1.10,2013-05-19 06:28:00,
2013-05-19 01:43:00,68.5,64.0,29.86,SE,132,5.0,9.0,84,0.00,,,0.00,weatherlink.com 1.10,2013-05-19 06:43:00,
2013-05-19 01:58:00,68.5,64.0,29.86,ESE,107,7.0,11.0,84,0.00,,,0.00,weatherlink.com 1.10,2013-05-19 06:58:00,
2013-05-19 02:13:00,68.4,63.0,29.86,SE,144,4.0,10.0,84,0.00,,,0.00,weatherlink.com 1.10,2013-05-19 07:13:00,
2013-05-19 02:28:00,68.0,63.0,29.86,SE,137,5.0,12.0,84,0.00,,,0.00,weatherlink.com 1.10,2013-05-19 07:28:00,
2013-05-19 02:43:00,67.3,63.0,29.88,South,186,2.0,6.0,86,0.00,,,0.00,weatherlink.com 1.10,2013-05-19 07:43:00,
2013-05-19 02:58:00,66.8,63.0,29.88,SSE,153,0.0,7.0,87,0.00,,,0.00,weatherlink.com 1.10,2013-05-19 07:58:00,
2013-05-19 03:13:00,66.6,63.0,29.87,SSE,150,3.0,5.0,88,0.00,,,0.00,weatherlink.com 1.10,2013-05-19 08:13:00,
2013-05-19 03:28:00,66.3,63.0,29.87,SSE,147,2.0,5.0,88,0.00,,,0.00,weatherlink.com 1.10,2013-05-19 08:28:00,
2013-05-19 03:43:00,66.0,63.0,29.87,SE,140,1.0,4.0,89,0.00,,,0.00,weatherlink.com 1.10,2013-05-19 08:43:00,
2013-05-19 03:58:00,65.6,62.0,29.87,SE,140,1.0,3.0,89,0.00,,,0.00,weatherlink.com 1.10,2013-05-19 08:58:00,
2013-05-19 04:13:00,65.5,63.0,29.88,SE,140,1.0,5.0,90,0.00,,,0.00,weatherlink.com 1.10,2013-05-19 09:13:00,
2013-05-19 04:28:00,65.7,63.0,29.89,SE,140,1.0,4.0,90,0.00,,,0.00,weatherlink.com 1.10,2013-05-19 09:28:00,
2013-05-19 04:43:00,65.9,63.0,29.87,SE,135,4.0,5.0,89,0.00,,,0.00,weatherlink.com 1.10,2013-05-19 09:43:00,
2013-05-19 04:58:00,65.8,63.0,29.86,SE,125,3.0,9.0,89,0.00,,,0.00,weatherlink.com 1.10,2013-05-19 09:58:00,
2013-05-19 05:13:00,65.7,63.0,29.86,SE,130,4.0,8.0,90,0.00,,,0.00,weatherlink.com 1.10,2013-05-19 10:13:00,
2013-05-19 05:28:00,65.8,63.0,29.86,SE,144,5.0,11.0,90,0.00,,,0.00,weatherlink.com 1.10,2013-05-19 10:28:00,
2013-05-19 05:43:00,65.9,63.0,29.86,SSE,148,3.0,10.0,90,0.00,,,0.00,weatherlink.com 1.10,2013-05-19 10:43:00,
2013-05-19 05:58:00,66.1,63.0,29.85,SE,126,5.0,9.0,90,0.00,,,0.00,weatherlink.com 1.10,2013-05-19 10:58:00,
2013-05-19 06:13:00,66.6,63.0,29.85,ESE,119,4.0,10.0,89,0.00,,,0.00,weatherlink.com 1.10,2013-05-19 11:13:00,
2013-05-19 06:28:00,67.1,64.0,29.83,SE,127,4.0,10.0,88,0.00,,,0.00,weatherlink.com 1.10,2013-05-19 11:28:00,
2013-05-19 06:43:00,67.5,64.0,29.84,SSE,151,8.0,9.0,87,0.00,,,0.00,weatherlink.com 1.10,2013-05-19 11:43:00,
2013-05-19 06:58:00,68.2,64.0,29.86,SE,135,6.0,13.0,87,0.00,,,0.00,weatherlink.com 1.10,2013-05-19 11:58:00,
2013-05-19 07:13:00,68.5,64.0,29.87,SE,131,9.0,12.0,86,0.00,,,0.00,weatherlink.com 1.10,2013-05-19 12:13:00,
2013-05-19 07:28:00,68.8,65.0,29.86,SE,134,6.0,12.0,86,0.00,,,0.00,weatherlink.com 1.10,2013-05-19 12:28:00,
2013-05-19 07:43:00,70.2,65.0,29.85,SSW,197,4.0,13.0,83,0.00,,,0.00,weatherlink.com 1.10,2013-05-19 12:43:00,
2013-05-19 07:58:00,71.4,65.0,29.85,SSE,157,6.0,11.0,81,0.00,,,0.00,weatherlink.com 1.10,2013-05-19 12:58:00,
2013-05-19 08:13:00,72.3,66.0,29.85,SE,144,7.0,12.0,80,0.00,,,0.00,weatherlink.com 1.10,2013-05-19 13:13:00,
2013-05-19 08:28:00,73.3,66.0,29.85,SE,144,9.0,12.0,78,0.00,,,0.00,weatherlink.com 1.10,2013-05-19 13:28:00,
2013-05-19 08:43:00,73.7,66.0,29.85,SE,125,7.0,13.0,77,0.00,,,0.00,weatherlink.com 1.10,2013-05-19 13:43:00,
2013-05-19 08:58:00,74.3,66.0,29.84,SSE,165,2.0,13.0,76,0.00,,,0.00,weatherlink.com 1.10,2013-05-19 13:58:00,
2013-05-19 09:13:00,74.6,67.0,29.84,ESE,121,2.0,15.0,76,0.00,,,0.00,weatherlink.com 1.10,2013-05-19 14:13:00,
2013-05-19 09:29:00,74.4,67.0,29.85,SSE,150,7.0,11.0,77,0.00,,,0.00,weatherlink.com 1.10,2013-05-19 14:29:00,
2013-05-19 09:44:00,75.1,67.0,29.83,SE,141,9.0,12.0,75,0.00,,,0.00,weatherlink.com 1.10,2013-05-19 14:44:00,
2013-05-19 09:59:00,76.2,68.0,29.83,ESE,117,4.0,14.0,75,0.00,,,0.00,weatherlink.com 1.10,2013-05-19 14:59:00,
2013-05-19 10:14:00,77.2,68.0,29.84,ESE,119,7.0,15.0,73,0.00,,,0.00,weatherlink.com 1.10,2013-05-19 15:14:00,
2013-05-19 10:29:00,77.9,68.0,29.84,ESE,119,11.0,14.0,71,0.00,,,0.00,weatherlink.com 1.10,2013-05-19 15:29:00,
2013-05-19 10:44:00,79.5,68.0,29.85,SSE,155,16.0,17.0,68,0.00,,,0.00,weatherlink.com 1.10,2013-05-19 15:44:00,
2013-05-19 10:59:00,80.0,69.0,29.87,ESE,107,10.0,16.0,68,0.00,,,0.00,weatherlink.com 1.10,2013-05-19 15:59:00,
2013-05-19 11:14:00,80.9,68.0,29.84,SE,140,6.0,20.0,66,0.00,,,0.00,weatherlink.com 1.10,2013-05-19 16:14:00,
2013-05-19 11:29:00,82.4,68.0,29.84,South,174,14.0,20.0,62,0.00,,,0.00,weatherlink.com 1.10,2013-05-19 16:29:00,
2013-05-19 11:44:00,83.6,68.0,29.83,SSE,167,8.0,19.0,60,0.00,,,0.00,weatherlink.com 1.10,2013-05-19 16:44:00,
2013-05-19 11:59:00,82.2,68.0,29.84,SSE,152,3.0,19.0,63,0.00,,,0.00,weatherlink.com 1.10,2013-05-19 16:59:00,
2013-05-19 12:14:00,82.8,69.0,29.85,South,175,6.0,16.0,63,0.00,,,0.00,weatherlink.com 1.10,2013-05-19 17:14:00,
2013-05-19 12:29:00,81.6,69.0,29.85,South,183,12.0,19.0,66,0.00,,,0.00,weatherlink.com 1.10,2013-05-19 17:29:00,
2013-05-19 12:44:00,82.6,70.0,29.83,SE,143,10.0,16.0,65,0.01,,,0.01,weatherlink.com 1.10,2013-05-19 17:44:00,
2013-05-19 12:59:00,84.3,70.0,29.82,SSE,164,8.0,17.0,63,0.01,,,0.01,weatherlink.com 1.10,2013-05-19 17:59:00,
2013-05-19 13:14:00,85.6,71.0,29.79,SE,131,8.0,18.0,61,0.01,,,0.01,weatherlink.com 1.10,2013-05-19 18:14:00,
2013-05-19 13:29:00,84.8,70.0,29.78,SE,137,10.0,18.0,62,0.01,,,0.01,weatherlink.com 1.10,2013-05-19 18:29:00,
2013-05-19 13:44:00,84.0,71.0,29.75,SE,128,10.0,16.0,64,0.00,,,0.01,weatherlink.com 1.10,2013-05-19 18:44:00,
2013-05-19 13:59:00,83.8,71.0,29.71,ESE,109,5.0,15.0,65,0.00,,,0.01,weatherlink.com 1.10,2013-05-19 18:59:00,
2013-05-19 14:14:00,86.8,72.0,29.70,ESE,123,18.0,23.0,61,0.00,,,0.01,weatherlink.com 1.10,2013-05-19 19:14:00,
2013-05-19 14:29:00,88.4,71.0,29.71,SE,146,12.0,28.0,57,0.00,,,0.01,weatherlink.com 1.10,2013-05-19 19:29:00,
2013-05-19 14:44:00,89.0,72.0,29.70,SE,132,13.0,26.0,57,0.00,,,0.01,weatherlink.com 1.10,2013-05-19 19:44:00,
2013-05-19 14:59:00,90.5,71.0,29.70,SE,146,9.0,25.0,53,0.00,,,0.01,weatherlink.com 1.10,2013-05-19 19:59:00,
2013-05-19 15:14:00,90.9,70.0,29.70,SE,135,14.0,24.0,51,0.00,,,0.01,weatherlink.com 1.10,2013-05-19 20:14:00,
2013-05-19 15:29:00,90.0,71.0,29.70,SE,128,18.0,24.0,53,0.00,,,0.01,weatherlink.com 1.10,2013-05-19 20:29:00,
2013-05-19 15:44:00,89.2,70.0,29.70,South,171,16.0,25.0,54,0.00,,,0.01,weatherlink.com 1.10,2013-05-19 20:44:00,
2013-05-19 15:59:00,91.4,71.0,29.70,South,186,13.0,22.0,51,0.00,,,0.01,weatherlink.com 1.10,2013-05-19 20:59:00,
2013-05-19 16:14:00,91.3,71.0,29.69,SE,142,10.0,25.0,51,0.00,,,0.01,weatherlink.com 1.10,2013-05-19 21:14:00,
2013-05-19 16:29:00,90.4,70.0,29.69,SE,137,13.0,22.0,52,0.00,,,0.01,weatherlink.com 1.10,2013-05-19 21:29:00,
2013-05-19 16:45:00,89.9,70.0,29.69,SE,140,12.0,21.0,52,0.00,,,0.01,weatherlink.com 1.10,2013-05-19 21:45:00,
2013-05-19 17:00:00,89.6,70.0,29.68,ESE,116,14.0,22.0,53,0.00,,,0.01,weatherlink.com 1.10,2013-05-19 22:00:00,
2013-05-19 17:15:00,89.9,70.0,29.67,SSE,162,12.0,22.0,52,0.00,,,0.01,weatherlink.com 1.10,2013-05-19 22:15:00,
2013-05-19 17:30:00,89.4,69.0,29.67,SSW,205,11.0,21.0,51,0.00,,,0.01,weatherlink.com 1.10,2013-05-19 22:30:00,
2013-05-19 17:45:00,88.7,70.0,29.67,SE,130,12.0,22.0,54,0.00,,,0.01,weatherlink.com 1.10,2013-05-19 22:45:00,
2013-05-19 18:00:00,87.4,69.0,29.68,SE,142,14.0,23.0,55,0.00,,,0.01,weatherlink.com 1.10,2013-05-19 23:00:00,
2013-05-19 18:15:00,86.7,70.0,29.68,SSE,152,9.0,16.0,57,0.00,,,0.01,weatherlink.com 1.10,2013-05-19 23:15:00,
2013-05-19 18:30:00,86.3,70.0,29.68,SSE,150,10.0,15.0,59,0.00,,,0.01,weatherlink.com 1.10,2013-05-19 23:30:00,
2013-05-19 18:45:00,85.8,70.0,29.68,SE,146,6.0,15.0,60,0.00,,,0.01,weatherlink.com 1.10,2013-05-19 23:45:00,
2013-05-19 19:00:00,85.3,70.0,29.68,SSE,153,4.0,13.0,60,0.00,,,0.01,weatherlink.com 1.10,2013-05-20 00:00:00,
2013-05-19 19:15:00,84.8,70.0,29.70,SE,143,7.0,11.0,61,0.00,,,0.01,weatherlink.com 1.10,2013-05-20 00:15:00,
2013-05-19 19:30:00,84.4,70.0,29.70,SE,140,2.0,7.0,62,0.00,,,0.01,weatherlink.com 1.10,2013-05-20 00:30:00,
2013-05-19 19:45:00,83.3,62.0,29.71,NNE,13,6.0,13.0,48,0.00,,,0.01,weatherlink.com 1.10,2013-05-20 00:45:00,
2013-05-19 20:00:00,75.8,60.0,29.70,NNE,25,5.0,9.0,59,0.00,,,0.01,weatherlink.com 1.10,2013-05-20 01:00:00,
2013-05-19 20:15:00,73.5,59.0,29.69,North,5,1.0,9.0,60,0.00,,,0.01,weatherlink.com 1.10,2013-05-20 01:15:00,
2013-05-19 20:30:00,73.2,59.0,29.69,NE,55,0.0,6.0,61,0.00,,,0.01,weatherlink.com 1.10,2013-05-20 01:30:00,
2013-05-19 20:45:00,73.1,59.0,29.68,ENE,65,1.0,8.0,62,0.00,,,0.01,weatherlink.com 1.10,2013-05-20 01:45:00,
2013-05-19 21:00:00,72.8,59.0,29.69,NE,42,4.0,6.0,62,0.00,,,0.01,weatherlink.com 1.10,2013-05-20 02:00:00,
2013-05-19 21:15:00,72.5,59.0,29.69,NNE,29,1.0,7.0,63,0.00,,,0.01,weatherlink.com 1.10,2013-05-20 02:15:00,
2013-05-19 21:30:00,72.2,60.0,29.68,NE,51,4.0,7.0,66,0.00,,,0.01,weatherlink.com 1.10,2013-05-20 02:30:00,
2013-05-19 21:45:00,72.4,61.0,29.68,NNE,24,0.0,3.0,68,0.00,,,0.01,weatherlink.com 1.10,2013-05-20 02:45:00,
2013-05-19 22:00:00,75.7,70.0,29.67,South,173,10.0,14.0,82,0.00,,,0.01,weatherlink.com 1.10,2013-05-20 03:00:00,
2013-05-19 22:15:00,79.6,71.0,29.67,SE,135,14.0,18.0,74,0.00,,,0.01,weatherlink.com 1.10,2013-05-20 03:15:00,
2013-05-19 22:30:00,80.1,71.0,29.68,SSE,151,7.0,16.0,73,0.00,,,0.01,weatherlink.com 1.10,2013-05-20 03:30:00,
2013-05-19 22:45:00,80.0,71.0,29.70,SE,142,10.0,20.0,74,0.00,,,0.01,weatherlink.com 1.10,2013-05-20 03:45:00,
2013-05-19 23:00:00,80.0,70.0,29.71,South,171,20.0,21.0,71,0.00,,,0.01,weatherlink.com 1.10,2013-05-20 04:00:00,
2013-05-19 23:15:00,80.0,68.0,29.71,SE,138,9.0,19.0,67,0.00,,,0.01,weatherlink.com 1.10,2013-05-20 04:15:00,
2013-05-19 23:30:00,80.0,67.0,29.70,SSW,196,11.0,22.0,64,0.00,,,0.01,weatherlink.com 1.10,2013-05-20 04:30:00,
2013-05-19 23:45:00,79.9,66.0,29.70,South,179,12.0,24.0,63,0.00,,,0.01,weatherlink.com 1.10,2013-05-20 04:45:00,